Regional Weather Roundup
Issued by NWS

Home | Current Version | Previous Version | Text Only | Print | Product List | Glossary Off
Versions: 1 2 3 4 5 6 7 8 9 10 11 12 13 14 15 16 17 18 19 20 21 22 23 24 25 26 27 28 29 30 31 32 33 34 35 36 37 38 39 40 41 42 43 44 45 46 47 48 49 50

000
ASUS43 KLSX 031510
RWRMO

WEATHER SUMMARY FOR MISSOURI
NATIONAL WEATHER SERVICE SPRINGFIELD MO
1000 AM CDT THU SEP 03 2015

NOTE: "FAIR" INDICATES FEW OR NO CLOUDS BELOW 12,000 FEET WITH NO
       SIGNIFICANT WEATHER AND/OR OBSTRUCTIONS TO VISIBILITY.
       CURRENT SKY AND/OR WEATHER CONDITIONS ARE NOT AVAILABLE FOR
       CHILLICOTHE AND FARMINGTON.

MOZ001>031-035>038-043-044-053-054-031600-
...NORTHERN AND WESTERN MISSOURI...

CITY           SKY/WX    TMP DP  RH WIND       PRES   REMARKS
KANSAS CTY INT PTSUNNY   81  69  67 SW8       29.97R
KANSAS C DTWN  MOSUNNY   85  67  54 SW9       29.95S
LEE`S SUMMIT   SUNNY     80  67  64 SW12      29.99R
ST JOSEPH      PTSUNNY   77  69  76 S12       29.93F
CHILLICOTHE      N/A     82  70  66 S12       29.97F
KIRKSVILLE     MOSUNNY   81  69  67 SW10      30.00S

$$
MOZ066>068-077>081-088>096-101>105-031600-
...SOUTHWEST MISSOURI...

CITY           SKY/WX    TMP DP  RH WIND       PRES   REMARKS
SPRINGFIELD    SUNNY     79  68  69 S7        30.04S
JOPLIN         SUNNY     81  68  64 SW10      30.03S

$$
MOZ032>034-039>042-045>050-055>058-069>072-031600-
...CENTRAL MISSOURI...

CITY           SKY/WX    TMP DP  RH WIND       PRES   REMARKS
COLUMBIA       MOSUNNY   78  70  76 S5        30.02R
JEFFERSON CITY PTSUNNY   77  68  73 SE5       30.01S
ROLLA          MOSUNNY   81  68  64 S9        30.04R
SEDALIA        SUNNY     82  68  62 SW10      30.02S
WHITEMAN AFB   MOSUNNY   81  68  64 SW13      29.99S
WARRENSBURG    SUNNY     81  66  61 S10       30.00R
OSAGE BEACH    SUNNY     81  68  65 SW7       30.04R

$$
MOZ051-052-059>065-031600-
...EAST CENTRAL MISSOURI...

CITY           SKY/WX    TMP DP  RH WIND       PRES   REMARKS
ST LOUIS INTL  MOSUNNY   87  69  54 VRB6      30.03S HX  91
SPIRIT OF STL  MOSUNNY   82  71  69 S5        30.01S
ST CHARLES     SUNNY     82  73  74 S3        30.00F

$$
MOZ072>076-082>087-097>100-106>115-031600-
...SOUTH CENTRAL AND SOUTHEAST MISSOURI...

CITY           SKY/WX    TMP DP  RH WIND       PRES   REMARKS
CAPE GIRARDEAU SUNNY     83  71  67 CALM      30.04S
FARMINGTON     SUNNY     81  72  74 S7        30.08S
POPLAR BLUFF   SUNNY     81  73  76 CALM      30.03S
WEST PLAINS    SUNNY     80  66  62 VRB3      30.08S

$$


USA.gov is the U.S. government's official web portal to all federal, state and local government web resources and services.